Hourly Data Report for September 01, 2017

All times are specified in Local Standard Time (LST). Add 1 hour to adjust for Daylight Saving Time where and when it is observed.

FREDERICTON
NEW BRUNSWICK

45°52'08.000" N
66°32'14.000" W
20.70 m
8101505
71700
YFC

Download Data

Hourly Data (September 2017)
Hourly Data Report for September 1, 2017
Temp Definition
°C
Dew Point Temp Definition
°C
Rel Hum Definition
%
Wind Dir Definition
10's deg

Wind Spd Definition
km/h
Visibility Definition
km
Stn Press Definition
kPa
Hmdx Definition


Wind Chill Definition


Weather Definition


TIME
00:00 Legend Double Dagger 10.9 7.6 80 26 8 16.1 100.46     LegendNANA
01:00 Legend Double Dagger 8.4 6.7 89 21 11 16.1 100.45     LegendNANA
02:00 Legend Double Dagger 7.0 6.3 95 20 8 16.1 100.44     LegendNANA
03:00 Legend Double Dagger 7.9 6.7 92 23 13 16.1 100.44     LegendNANA
04:00 Legend Double Dagger 8.9 7.4 90 22 13 16.1 100.45     LegendNANA
05:00 Legend Double Dagger 6.8 6.0 95 23 13 16.1 100.46     LegendNANA
06:00 Legend Double Dagger 6.9 6.0 94 22 9 16.1 100.50     LegendNANA
07:00 Legend Double Dagger 9.2 7.0 86 24 11 16.1 100.52     LegendNANA
08:00 Legend Double Dagger 11.9 6.7 70 26 9 16.1 100.52     LegendNANA
09:00 Legend Double Dagger 12.3 5.0 61 28 18 16.1 100.52     LegendNANA
10:00 Legend Double Dagger 12.9 4.7 57 29 17 16.1 100.52     LegendNANA
11:00 Legend Double Dagger 14.1 3.7 49 25 24 16.1 100.47     LegendNANA
12:00 Legend Double Dagger 12.1 5.8 65 26 21 16.1 100.48     Rain
13:00 Legend Double Dagger 13.9 6.2 59 23 24 16.1 100.47     LegendNANA
14:00 Legend Double Dagger 13.3 5.9 61 26 24 16.1 100.51     LegendNANA
15:00 Legend Double Dagger 10.2 7.3 82 28 15 16.1 100.57     Rain
16:00 Legend Double Dagger 11.7 6.0 68 26 17 16.1 100.56     LegendNANA
17:00 Legend Double Dagger 10.5 7.4 81 28 15 16.1 100.66     Rain
18:00 Legend Double Dagger 11.2 6.9 75 28 18 16.1 100.72     LegendNANA
19:00 Legend Double Dagger 11.0 6.6 74 28 32 16.1 100.83     LegendNANA
20:00 Legend Double Dagger 10.9 6.5 74 28 22 16.1 100.93     LegendNANA
21:00 Legend Double Dagger 10.8 6.7 76 29 15 16.1 101.00     LegendNANA
22:00 Legend Double Dagger 10.2 6.7 79 29 17 16.1 101.03     LegendNANA
23:00 Legend Double Dagger 10.2 6.6 78 29 15 16.1 101.10     LegendNANA

Notes on Data Quality.

Legend

  • E = Estimated
  • M = Missing
  • NA = Not Available
  • ‡ = Partner data that is not subject to review by the National Climate Archives
Date modified: